TimeEDT,TemperatureF,Dew PointF,Humidity,Sea Level PressureIn,VisibilityMPH,Wind Direction,Wind SpeedMPH,Gust SpeedMPH,PrecipitationIn,Events,Conditions,WindDirDegrees,DateUTC
12:15 AM,34.7,14.9,44,29.97,10.0,Calm,Calm,-,N/A,,Overcast,0,2013-03-23 04:15:00
12:35 AM,34.0,14.9,46,29.96,10.0,SSW,3.5,-,N/A,,Overcast,200,2013-03-23 04:35:00
12:55 AM,34.3,15.1,45,29.96,10.0,WSW,4.6,-,N/A,,Overcast,240,2013-03-23 04:55:00
1:15 AM,34.2,15.4,46,29.96,10.0,SW,4.6,-,N/A,,Overcast,220,2013-03-23 05:15:00
1:55 AM,34.2,15.1,46,29.96,10.0,SW,3.5,-,N/A,,Overcast,230,2013-03-23 05:55:00
2:15 AM,34.3,14.9,45,29.96,10.0,SW,4.6,-,N/A,,Overcast,230,2013-03-23 06:15:00
2:35 AM,34.0,14.9,46,29.96,10.0,WSW,3.5,-,N/A,,Overcast,240,2013-03-23 06:35:00
2:55 AM,34.0,14.7,45,29.95,10.0,Calm,Calm,-,N/A,,Overcast,0,2013-03-23 06:55:00
3:15 AM,33.8,14.9,46,29.95,10.0,WSW,3.5,-,N/A,,Overcast,250,2013-03-23 07:15:00
3:35 AM,33.8,15.1,46,29.95,10.0,Calm,Calm,-,N/A,,Overcast,0,2013-03-23 07:35:00
3:55 AM,33.8,14.5,45,29.94,10.0,Calm,Calm,-,N/A,,Overcast,0,2013-03-23 07:55:00
4:35 AM,32.9,14.4,47,29.94,10.0,Calm,Calm,-,N/A,,Overcast,0,2013-03-23 08:35:00
4:55 AM,33.3,14.7,47,29.94,10.0,Calm,Calm,-,N/A,,Overcast,0,2013-03-23 08:55:00
5:15 AM,32.9,15.1,48,29.93,10.0,Calm,Calm,-,N/A,,Overcast,0,2013-03-23 09:15:00
5:55 AM,32.9,16.0,50,29.94,10.0,Calm,Calm,-,N/A,,Overcast,0,2013-03-23 09:55:00
6:15 AM,33.3,15.6,48,29.94,10.0,Calm,Calm,-,N/A,,Overcast,0,2013-03-23 10:15:00
6:55 AM,33.1,15.4,48,29.94,10.0,Calm,Calm,-,N/A,,Overcast,0,2013-03-23 10:55:00
7:15 AM,32.9,15.3,48,29.94,10.0,Calm,Calm,-,N/A,,Overcast,0,2013-03-23 11:15:00
7:35 AM,32.9,15.3,48,29.95,10.0,Calm,Calm,-,N/A,,Overcast,0,2013-03-23 11:35:00
7:55 AM,33.1,16.3,50,29.96,10.0,Calm,Calm,-,N/A,,Overcast,0,2013-03-23 11:55:00
8:15 AM,33.4,18.1,54,29.96,10.0,Calm,Calm,-,N/A,,Overcast,0,2013-03-23 12:15:00
8:35 AM,33.4,17.8,53,29.98,10.0,Calm,Calm,-,N/A,,Overcast,0,2013-03-23 12:35:00
8:55 AM,33.8,19.9,57,29.98,10.0,Calm,Calm,-,N/A,,Overcast,0,2013-03-23 12:55:00
9:15 AM,34.7,18.0,51,29.98,10.0,Calm,Calm,-,N/A,,Overcast,0,2013-03-23 13:15:00
9:35 AM,34.9,19.2,53,29.98,10.0,Calm,Calm,-,N/A,,Overcast,0,2013-03-23 13:35:00
9:55 AM,35.6,17.8,48,29.98,10.0,Calm,Calm,-,N/A,,Overcast,0,2013-03-23 13:55:00
10:15 AM,36.3,19.0,50,29.98,10.0,Calm,Calm,-,N/A,,Overcast,0,2013-03-23 14:15:00
10:55 AM,37.4,16.9,43,29.98,10.0,Calm,Calm,-,N/A,,Overcast,0,2013-03-23 14:55:00
11:15 AM,37.9,24.3,58,29.98,10.0,Calm,Calm,-,N/A,,Overcast,0,2013-03-23 15:15:00
11:35 AM,38.3,23.5,55,29.98,10.0,Calm,Calm,-,N/A,,Overcast,0,2013-03-23 15:35:00
11:55 AM,38.5,24.8,58,29.98,10.0,Calm,Calm,-,N/A,,Overcast,0,2013-03-23 15:55:00
12:15 PM,38.5,24.3,57,29.98,10.0,Calm,Calm,-,N/A,,Overcast,0,2013-03-23 16:15:00
12:35 PM,38.7,24.4,57,29.98,10.0,Calm,Calm,-,N/A,,Overcast,0,2013-03-23 16:35:00
12:55 PM,39.2,25.7,58,29.97,10.0,Calm,Calm,-,N/A,,Overcast,0,2013-03-23 16:55:00
1:15 PM,39.4,26.4,60,29.96,10.0,Calm,Calm,-,N/A,,Overcast,0,2013-03-23 17:15:00
1:35 PM,40.1,27.9,62,29.96,10.0,Calm,Calm,-,N/A,,Overcast,0,2013-03-23 17:35:00
1:55 PM,40.5,30.4,67,29.95,10.0,West,4.6,-,N/A,,Overcast,280,2013-03-23 17:55:00
2:15 PM,40.3,29.1,64,29.95,10.0,Calm,Calm,-,N/A,,Overcast,0,2013-03-23 18:15:00
2:35 PM,41.2,30.9,67,29.95,10.0,Calm,Calm,-,N/A,,Overcast,0,2013-03-23 18:35:00
2:55 PM,41.2,29.8,64,29.95,10.0,SW,3.5,-,N/A,,Overcast,220,2013-03-23 18:55:00
3:15 PM,41.5,28.8,60,29.94,10.0,Calm,Calm,-,N/A,,Overcast,0,2013-03-23 19:15:00
3:35 PM,42.6,29.3,59,29.94,10.0,Calm,Calm,-,N/A,,Overcast,0,2013-03-23 19:35:00
3:55 PM,43.3,29.8,59,29.94,10.0,NNE,3.5,-,N/A,,Overcast,20,2013-03-23 19:55:00
4:15 PM,43.2,30.4,61,29.94,10.0,Calm,Calm,-,N/A,,Overcast,0,2013-03-23 20:15:00
4:35 PM,43.9,30.4,59,29.92,10.0,NW,4.6,-,N/A,,Overcast,320,2013-03-23 20:35:00
4:55 PM,44.2,31.5,61,29.92,10.0,NNE,3.5,-,N/A,,Overcast,20,2013-03-23 20:55:00
5:15 PM,45.1,32.0,60,29.91,10.0,WNW,3.5,-,N/A,,Mostly Cloudy,300,2013-03-23 21:15:00
5:35 PM,45.3,32.0,60,29.91,10.0,WSW,3.5,-,N/A,,Scattered Clouds,250,2013-03-23 21:35:00
5:55 PM,46.2,32.0,58,29.91,10.0,Calm,Calm,-,N/A,,Scattered Clouds,0,2013-03-23 21:55:00
6:15 PM,46.4,32.0,57,29.90,10.0,West,3.5,-,N/A,,Clear,270,2013-03-23 22:15:00
6:35 PM,45.1,31.3,58,29.91,10.0,WSW,3.5,-,N/A,,Clear,250,2013-03-23 22:35:00
6:55 PM,45.0,31.8,60,29.91,10.0,Calm,Calm,-,N/A,,Clear,0,2013-03-23 22:55:00
7:15 PM,44.2,32.0,62,29.92,10.0,SSW,3.5,-,N/A,,Clear,200,2013-03-23 23:15:00
7:35 PM,43.9,32.0,63,29.91,10.0,South,3.5,-,N/A,,Clear,190,2013-03-23 23:35:00
7:55 PM,43.7,32.0,63,29.91,10.0,Calm,Calm,-,N/A,,Clear,0,2013-03-23 23:55:00
8:15 PM,43.7,31.8,63,29.90,10.0,Calm,Calm,-,N/A,,Clear,0,2013-03-24 00:15:00
8:55 PM,43.7,32.0,63,29.91,10.0,Calm,Calm,-,N/A,,Clear,0,2013-03-24 00:55:00
9:15 PM,42.3,31.8,67,29.91,10.0,NE,3.5,-,N/A,,Clear,50,2013-03-24 01:15:00
9:55 PM,42.1,29.3,61,29.91,10.0,ENE,5.8,-,N/A,,Clear,60,2013-03-24 01:55:00
10:15 PM,42.1,27.5,56,29.90,10.0,ENE,6.9,-,N/A,,Clear,70,2013-03-24 02:15:00
10:35 PM,41.9,27.5,57,29.88,10.0,East,8.1,-,N/A,,Clear,90,2013-03-24 02:35:00
10:55 PM,41.2,27.1,57,29.87,10.0,East,6.9,-,N/A,,Clear,80,2013-03-24 02:55:00
11:15 PM,41.2,26.4,56,29.85,10.0,East,4.6,-,N/A,,Clear,80,2013-03-24 03:15:00
11:35 PM,40.8,26.4,57,29.84,10.0,East,5.8,-,N/A,,Clear,90,2013-03-24 03:35:00
11:55 PM,40.5,27.3,59,29.83,10.0,ENE,9.2,-,N/A,,Clear,70,2013-03-24 03:55:00